To NAV CANADA Home Page Login to a new session Search on AWWS site Feedback and Comments Disclaimer Vers la page française équivalente Tips FAQ What's new on the site To the Forecasts and Observations / NOTAM section To "File a Flight Plan" website Publications and other links Update of the User's profile FIC Telephone Numbers My Weather Data Folder Route Weather Data Regional Weather Data Local Weather Data To the Forecasts and Observations / NOTAM section
Request Generated 08/27/2016 at 02:51:10 UTC . Weather information available at that time is displayed.

METAR/TAF

NAUJAAT/NU    

LWIS CYUT 270200Z AUTO 07007KT 07/06 A2970=
LWIS CYUT 270100Z AUTO 09007KT 07/06 A2969=
LWIS CYUT 270000Z AUTO 11008KT 08/06 A2969=

*** REMARK        : Forecast period has ended; this was the last TAF issued
*** REMARQUE : La période de prévision est échue; ceci était le dernier TAF qui a été émis
TAF CYUT 261838Z 2619/2622 07010KT P6SM SCT008 OVC025 TEMPO 2619/2622
5SM -RA BR BKN008 OVC012
RMK NXT FCST WILL BE ISSUED AT 271545Z=
Your time UTC time
Weather data provided by Environment Canada and NAV CANADA